period_start,C,m1,H,J0,J1,J2,J3,J4,J5,JA,JB,JC,JD,JJ,JK,JN,#
2018-04-11 00:02:03,0.24,3.45,0.00,24.35,28.15,31.14,14.09,49.50,1032.75,2020.00,2275.30,2255.09,2574.27,599.92,602.66,16.79,0000 0000 0000 0000 000000
2018-04-11 00:07:04,0.24,3.46,0.00,24.38,28.15,31.14,14.15,49.58,1032.77,2020.00,2272.53,2252.69,2571.57,599.95,602.64,16.84,0000 0000 0000 0000 000000
2018-04-11 00:12:05,0.24,3.48,0.00,24.41,28.15,31.15,14.09,49.65,1032.81,2020.00,2269.77,2250.29,2568.76,599.70,602.45,16.89,0000 0000 0000 0000 000000
2018-04-11 00:17:06,0.24,3.49,0.00,24.43,28.17,31.16,14.16,49.58,1032.94,2020.00,2266.91,2247.93,2566.05,600.16,602.92,16.94,0000 0000 0000 0000 000000
2018-04-11 00:22:08,0.25,3.50,0.00,24.45,28.17,31.16,14.13,49.63,1033.07,2020.00,2263.96,2245.52,2563.30,600.02,602.66,16.99,0000 0000 0000 0000 000000
2018-04-11 00:27:09,0.24,3.51,0.00,24.48,28.17,31.18,14.14,49.52,1033.17,2020.00,2261.11,2243.17,2560.55,600.14,602.93,17.04,0000 0000 0000 0000 000000
2018-04-11 00:32:10,0.25,3.53,0.00,24.51,28.19,31.16,14.18,49.66,1033.20,2020.00,2258.12,2240.74,2557.97,600.23,602.84,17.09,0000 0000 0000 0000 000000
2018-04-11 00:37:12,0.25,3.54,0.00,24.55,28.20,31.18,14.13,49.61,1033.22,2019.99,2255.02,2238.41,2555.15,599.95,602.57,17.14,0000 0000 0000 0000 000000
2018-04-11 00:42:13,0.23,3.55,0.00,24.57,28.21,31.19,14.22,49.54,1033.22,2019.99,2252.15,2236.23,2552.57,600.26,602.83,17.19,0000 0000 0000 0000 000000
2018-04-11 00:47:14,0.23,3.57,0.00,24.60,28.22,31.20,14.14,49.65,1033.22,2019.98,2249.33,2234.08,2550.13,600.13,602.55,17.24,0000 0000 0000 0000 000000
2018-04-11 00:52:15,0.21,3.58,0.00,24.63,28.24,31.22,14.11,49.64,1033.23,2019.98,2246.63,2232.05,2547.83,600.06,602.53,17.29,0000 0000 0000 0000 000000
2018-04-11 00:57:16,0.22,3.59,0.00,24.66,28.25,31.23,14.09,49.64,1033.23,2019.94,2244.02,2229.96,2545.34,599.82,602.18,17.34,0000 0000 0000 0000 000000
2018-04-11 01:02:18,0.24,3.60,0.00,24.69,28.27,31.24,14.12,49.53,1033.24,2019.86,2241.04,2227.60,2542.70,600.32,602.66,17.39,0000 0000 0000 0000 000000
2018-04-11 01:07:19,0.23,3.61,0.00,24.72,28.29,31.27,14.18,49.54,1033.23,2019.95,2238.47,2225.45,2540.25,600.29,602.53,17.44,0000 0000 0000 0000 000000
2018-04-11 01:12:20,0.20,3.62,0.00,24.76,28.31,31.28,14.09,49.58,1033.24,2019.94,2236.16,2223.50,2537.97,599.94,602.05,17.49,0000 0000 0000 0000 000000
2018-04-11 01:17:22,0.16,3.63,0.00,24.80,28.33,31.30,14.13,49.61,1033.23,2019.69,2233.70,2221.52,2535.70,600.05,602.17,17.54,0000 0000 0000 0000 000000
2018-04-11 01:22:23,0.18,3.64,0.00,24.86,28.35,31.31,14.05,49.76,1033.22,2019.37,2231.28,2219.55,2533.39,599.75,601.62,17.59,0000 0000 0000 0000 000000
2018-04-11 01:27:25,0.19,3.65,0.00,24.86,28.37,31.33,14.16,49.72,1033.22,2019.05,2228.77,2217.47,2531.02,600.15,602.21,17.64,0000 0000 0000 0000 000000
2018-04-11 01:32:26,0.21,3.66,0.00,24.87,28.40,31.36,14.12,49.72,1033.22,2019.01,2226.22,2215.42,2528.63,600.08,602.05,17.69,0000 0000 0000 0000 000000
2018-04-11 01:37:28,0.22,3.67,0.00,24.90,28.42,31.38,14.07,49.55,1033.23,2019.00,2223.70,2213.37,2526.33,599.96,601.87,17.74,0000 0000 0000 0000 000000
2018-04-11 01:42:29,0.22,3.68,0.00,24.94,28.44,31.41,14.04,49.48,1033.23,2019.00,2221.17,2211.33,2523.98,599.94,601.77,17.79,0000 0000 0000 0000 000000
2018-04-11 01:47:30,0.20,3.69,0.00,25.02,28.47,31.42,14.08,49.48,1033.29,2019.00,2218.72,2209.33,2521.59,600.32,602.03,17.85,0000 0000 0000 0000 000000
2018-04-11 01:52:32,0.22,3.71,0.00,25.06,28.50,31.43,14.08,49.64,1033.31,2019.00,2216.26,2207.26,2519.26,600.14,601.78,17.89,0000 0000 0000 0000 000000
2018-04-11 01:57:33,0.20,3.72,0.00,25.08,28.52,31.47,14.09,49.50,1033.38,2018.98,2213.92,2205.30,2517.00,599.84,601.62,17.95,0000 0000 0000 0000 000000
2018-04-11 02:02:34,0.21,3.73,0.00,25.10,28.55,31.50,14.11,49.66,1033.35,2018.93,2211.42,2203.30,2514.70,599.80,601.34,18.00,0000 0000 0000 0000 000000
2018-04-11 02:07:35,0.16,3.74,0.00,25.14,28.58,31.52,14.13,49.50,1033.54,2018.59,2208.99,2201.23,2512.37,600.03,601.74,18.05,0000 0000 0000 0000 000000
2018-04-11 02:12:37,0.19,3.74,0.00,25.22,28.61,31.55,14.01,49.54,1033.61,2018.21,2206.52,2199.27,2510.10,599.67,601.15,18.10,0000 0000 0000 0000 000000
2018-04-11 02:17:38,0.21,3.75,0.00,25.24,28.65,31.57,14.03,49.55,1033.50,2018.02,2204.10,2197.20,2507.67,599.98,601.27,18.15,0000 0000 0000 0000 000000
2018-04-11 02:22:39,0.20,3.76,0.00,25.26,28.68,31.61,13.94,49.46,1033.55,2018.00,2201.69,2195.24,2505.41,599.47,600.84,18.20,0000 0000 0000 0000 000000
2018-04-11 02:27:40,0.23,3.78,0.00,25.29,28.71,31.65,14.18,49.74,1033.63,2018.00,2199.24,2193.21,2503.08,600.23,601.49,18.25,0000 0000 0000 0000 000000
2018-04-11 02:32:42,0.21,3.79,0.00,25.38,28.75,31.68,14.12,49.56,1033.65,2017.99,2196.80,2191.22,2500.72,600.25,601.45,18.30,0000 0000 0000 0000 000000
2018-04-11 02:37:43,0.20,3.80,0.00,25.45,28.79,31.70,13.98,49.54,1033.68,2017.93,2194.36,2189.18,2498.40,599.70,600.82,18.35,0000 0000 0000 0000 000000
2018-04-11 02:42:44,0.16,3.81,0.00,25.46,28.82,31.74,14.05,49.61,1033.70,2017.49,2191.91,2187.17,2496.13,600.15,601.14,18.40,0000 0000 0000 0000 000000
2018-04-11 02:47:46,0.17,3.82,0.00,25.51,28.86,31.77,14.01,49.64,1033.71,2017.12,2189.47,2185.16,2493.94,599.73,600.60,18.45,0000 0000 0000 0000 000000
2018-04-11 02:52:47,0.21,3.83,0.00,25.61,28.90,31.80,14.06,49.56,1033.71,2017.02,2187.05,2183.23,2491.71,600.03,600.79,18.50,0000 0000 0000 0000 000000
2018-04-11 02:57:48,0.20,3.84,0.00,25.64,28.94,31.84,14.12,49.60,1033.71,2017.00,2184.72,2181.30,2489.52,600.28,601.01,18.55,0000 0000 0000 0000 000000
2018-04-11 03:02:49,0.20,3.85,0.00,25.66,28.99,31.89,14.00,49.56,1033.71,2016.99,2182.44,2179.39,2487.41,599.78,600.43,18.60,0000 0000 0000 0000 000000
2018-04-11 03:07:51,0.18,3.86,0.00,25.75,29.03,31.92,14.08,49.50,1033.71,2016.96,2180.28,2177.69,2485.47,600.26,600.64,18.65,0000 0000 0000 0000 000000
2018-04-11 03:12:52,0.12,3.86,0.00,25.80,29.07,31.95,13.99,49.65,1033.71,2016.53,2178.17,2176.04,2483.58,599.87,600.16,18.70,0000 0000 0000 0000 000000
2018-04-11 03:17:53,0.13,3.87,0.00,25.83,29.11,32.00,14.06,49.73,1033.71,2016.12,2176.27,2174.61,2481.82,600.03,600.34,18.75,0000 0000 0000 0000 000000
2018-04-11 03:22:55,0.15,3.88,0.00,25.89,29.16,32.04,14.01,49.63,1033.71,2016.01,2174.44,2173.10,2480.17,599.93,600.15,18.80,0000 0000 0000 0000 000000
2018-04-11 03:27:56,0.17,3.88,0.00,25.97,29.20,32.07,14.07,49.63,1033.72,2016.00,2172.58,2171.61,2478.44,599.95,599.96,18.85,0000 0000 0000 0000 000000
2018-04-11 03:32:57,0.16,3.89,0.00,25.99,29.25,32.11,14.01,49.60,1033.71,2016.00,2170.72,2170.13,2476.74,599.86,599.87,18.90,0000 0000 0000 0000 000000
2018-04-11 03:37:58,0.15,3.90,0.00,26.04,29.29,32.16,13.98,49.63,1033.71,2015.89,2168.80,2168.63,2475.03,599.95,599.84,18.95,0000 0000 0000 0000 000000
2018-04-11 03:42:59,0.09,3.91,0.00,26.14,29.34,32.21,14.01,49.67,1033.71,2015.41,2167.02,2167.25,2473.47,600.05,599.74,19.00,0000 0000 0000 0000 000000
2018-04-11 03:48:00,0.13,3.91,0.00,26.16,29.39,32.25,13.92,49.57,1033.71,2015.07,2165.24,2165.80,2471.84,600.05,599.65,19.05,0000 0000 0000 0000 000000
2018-04-11 03:53:02,0.13,3.92,0.00,26.19,29.44,32.31,13.98,49.56,1033.72,2015.01,2163.58,2164.49,2470.37,599.86,599.43,19.10,0000 0000 0000 0000 000000
2018-04-11 03:58:03,0.14,3.93,0.00,26.27,29.48,32.36,13.96,49.51,1033.74,2014.99,2161.82,2163.16,2468.77,599.86,599.25,19.15,0000 0000 0000 0000 000000
2018-04-11 04:03:04,0.15,3.93,0.00,26.29,29.53,32.39,14.02,49.58,1033.74,2014.93,2160.13,2161.75,2467.24,599.84,599.21,19.20,0000 0000 0000 0000 000000
2018-04-11 04:08:05,0.09,3.94,0.00,26.31,29.57,32.44,14.03,49.54,1033.72,2014.50,2158.39,2160.42,2465.68,600.10,599.49,19.25,0000 0000 0000 0000 000000
2018-04-11 04:13:07,0.11,3.95,0.00,26.37,29.61,32.47,14.00,49.56,1033.76,2014.07,2156.64,2159.09,2464.20,600.03,599.28,19.30,0000 0000 0000 0000 000000
2018-04-11 04:18:08,0.11,3.95,0.00,26.41,29.65,32.53,13.99,49.56,1033.82,2014.00,2155.08,2157.97,2462.86,599.36,598.73,19.35,0000 0000 0000 0000 000000
2018-04-11 04:23:09,0.11,3.96,0.00,26.43,29.68,32.56,13.98,49.59,1033.81,2014.00,2153.84,2156.97,2461.73,599.86,599.03,19.40,0000 0000 0000 0000 000000
2018-04-11 04:28:11,0.10,3.96,0.00,26.44,29.71,32.57,14.06,49.73,1033.93,2013.98,2152.69,2156.07,2460.74,600.02,599.16,19.45,0000 0000 0000 0000 000000
2018-04-11 04:33:12,0.07,3.97,0.00,26.45,29.73,32.64,14.13,49.64,1033.87,2013.98,2151.89,2155.36,2460.02,600.95,600.12,19.50,0000 0000 0000 0000 000000
2018-04-11 04:38:13,0.05,3.97,0.00,26.48,29.75,32.67,13.98,49.64,1033.88,2013.97,2151.01,2154.89,2459.29,599.70,598.87,19.55,0000 0000 0000 0000 000000
2018-04-11 04:43:14,0.08,3.97,0.00,26.44,29.76,32.76,14.01,49.70,1033.78,2013.92,2150.07,2154.08,2458.66,600.20,599.17,19.60,0000 0000 0000 0000 000000
2018-04-11 04:48:16,0.07,3.98,0.00,26.49,29.77,32.77,13.99,49.77,1033.74,2013.87,2149.15,2153.49,2458.00,600.30,599.24,19.65,0000 0000 0000 0000 000000
2018-04-11 04:53:17,0.06,3.98,0.00,26.50,29.76,32.72,14.09,49.91,1033.75,2013.89,2148.48,2153.00,2457.26,600.24,599.12,19.70,0000 0000 0000 0000 000000
2018-04-11 04:58:18,0.05,3.98,0.00,26.43,29.75,32.67,14.00,49.98,1033.76,2013.77,2147.79,2152.36,2456.88,599.99,599.07,19.75,0000 0000 0000 0000 000000
2018-04-11 05:03:20,0.06,3.99,0.00,26.53,29.73,32.56,14.02,50.02,1033.74,2013.91,2147.03,2152.00,2456.13,599.78,598.83,19.80,0000 0000 0000 0000 000000
2018-04-11 05:08:21,0.07,3.99,0.00,26.53,29.71,32.46,13.96,49.88,1033.76,2013.91,2146.24,2151.43,2455.74,599.97,598.91,19.85,0000 0000 0000 0000 000000
2018-04-11 05:13:23,0.13,4.00,0.00,26.53,29.69,32.49,13.95,49.88,1033.74,2013.96,2144.89,2150.54,2454.55,599.92,598.82,19.90,0000 0000 0000 0000 000000
2018-04-11 05:18:24,0.12,4.00,0.00,26.64,29.67,32.32,13.93,49.84,1033.71,2013.97,2143.15,2149.30,2453.14,600.04,598.76,19.95,0000 0000 0000 0000 000000
2018-04-11 05:23:25,0.12,4.01,0.00,26.58,29.64,32.30,14.03,49.96,1033.72,2013.98,2141.72,2148.38,2452.09,600.19,598.89,20.00,0000 0000 0000 0000 000000
2018-04-11 05:28:26,0.11,4.02,0.00,26.37,29.61,32.27,14.05,49.95,1033.71,2013.99,2140.34,2147.51,2451.10,600.07,599.32,20.05,0000 0000 0000 0000 000000
2018-04-11 05:33:28,0.13,4.02,0.00,26.29,29.57,32.31,14.08,50.01,1033.71,2013.99,2138.79,2146.50,2449.90,600.24,599.66,20.10,0000 0000 0000 0000 000000
2018-04-11 05:38:29,0.11,4.03,0.00,26.23,29.54,32.31,14.03,50.02,1033.71,2013.99,2137.44,2145.53,2448.82,599.70,599.21,20.15,0000 0000 0000 0000 000000
2018-04-11 05:43:30,0.11,4.03,0.00,26.19,29.51,32.22,13.98,50.04,1033.72,2014.00,2136.01,2144.61,2447.78,599.64,599.29,20.20,0000 0000 0000 0000 000000
2018-04-11 05:48:32,0.14,4.04,0.00,26.27,29.47,32.21,14.04,49.92,1033.73,2014.06,2134.53,2143.58,2446.62,600.44,599.88,20.25,0000 0000 0000 0000 000000
2018-04-11 05:53:33,0.16,4.05,0.00,26.27,29.44,32.18,14.01,49.90,1033.72,2014.28,2132.93,2142.48,2445.36,599.91,599.35,20.30,0000 0000 0000 0000 000000
2018-04-11 05:58:34,0.15,4.06,0.00,26.25,29.41,32.14,14.03,50.02,1033.73,2014.70,2131.42,2141.40,2444.13,600.06,599.54,20.35,0000 0000 0000 0000 000000
2018-04-11 06:03:36,0.20,4.07,0.00,26.31,29.39,32.09,14.04,50.11,1033.72,2014.94,2129.53,2139.98,2442.59,600.12,599.40,20.40,0000 0000 0000 0000 000000
2018-04-11 06:08:37,0.21,4.08,0.00,26.33,29.36,32.07,14.04,49.92,1033.72,2014.98,2127.17,2138.23,2440.52,600.14,599.48,20.45,0000 0000 0000 0000 000000
2018-04-11 06:13:38,0.21,4.09,0.00,26.32,29.34,32.07,13.94,50.02,1033.72,2014.99,2124.60,2136.36,2438.41,599.94,599.27,20.50,0000 0000 0000 0000 000000
2018-04-11 06:18:39,0.22,4.10,0.00,26.36,29.32,32.04,13.97,50.00,1033.72,2014.99,2122.17,2134.59,2436.38,599.63,598.91,20.55,0000 0000 0000 0000 000000
2018-04-11 06:23:40,0.22,4.11,0.00,26.45,29.30,32.05,13.94,49.92,1033.79,2015.00,2119.70,2132.75,2434.29,599.98,599.08,20.60,0000 0000 0000 0000 000000
2018-04-11 06:28:42,0.23,4.12,0.00,26.44,29.28,32.07,13.96,50.10,1033.94,2015.01,2116.97,2130.80,2432.12,599.73,598.96,20.65,0000 0000 0000 0000 000000
2018-04-11 06:33:43,0.22,4.13,0.00,26.45,29.27,32.06,14.00,50.00,1033.94,2015.03,2114.38,2128.89,2430.05,599.84,599.04,20.70,0000 0000 0000 0000 000000
2018-04-11 06:38:44,0.20,4.14,0.00,26.55,29.25,32.08,13.96,50.00,1034.10,2015.02,2111.94,2127.11,2427.98,600.21,599.25,20.75,0000 0000 0000 0000 000000
2018-04-11 06:43:45,0.23,4.15,0.00,26.54,29.25,32.04,14.05,49.95,1034.16,2015.04,2109.58,2125.21,2425.82,600.27,599.53,20.80,0000 0000 0000 0000 000000
2018-04-11 06:48:46,0.25,4.17,0.00,26.56,29.25,31.99,13.95,49.83,1034.15,2015.06,2106.74,2123.08,2423.45,599.75,598.92,20.85,0000 0000 0000 0000 000000
2018-04-11 06:53:48,0.25,4.18,0.00,26.63,29.25,31.97,14.04,49.92,1034.18,2015.06,2103.93,2121.04,2421.06,600.23,599.15,20.90,0000 0000 0000 0000 000000
2018-04-11 06:58:49,0.28,4.19,0.00,26.72,29.25,31.91,13.96,50.04,1034.19,2015.14,2100.99,2118.83,2418.59,599.97,598.74,20.95,0000 0000 0000 0000 000000
2018-04-11 07:03:51,0.30,4.21,0.00,26.71,29.25,31.92,14.02,49.97,1034.19,2015.13,2097.72,2116.27,2415.75,600.27,599.08,21.00,0000 0000 0000 0000 000000
2018-04-11 07:08:52,0.32,4.22,0.00,26.72,29.25,31.93,13.95,49.88,1034.19,2015.11,2094.12,2113.55,2412.61,599.73,598.54,21.05,0000 0000 0000 0000 000000
2018-04-11 07:13:53,0.30,4.24,0.00,26.83,29.25,31.94,13.98,49.85,1034.19,2015.08,2090.77,2111.07,2409.70,600.00,598.60,21.10,0000 0000 0000 0000 000000
2018-04-11 07:18:54,0.32,4.25,0.00,26.86,29.26,31.95,13.90,49.80,1034.20,2015.04,2087.16,2108.41,2406.58,600.09,598.75,21.15,0000 0000 0000 0000 000000
2018-04-11 07:23:56,0.26,4.27,0.00,26.86,29.27,31.97,13.96,49.96,1034.21,2015.01,2084.04,2106.05,2403.90,599.58,598.34,21.20,0000 0000 0000 0000 000000
2018-04-11 07:28:57,0.22,4.28,0.00,26.90,29.27,31.99,14.01,49.92,1034.23,2015.01,2081.49,2104.18,2401.77,600.18,598.65,21.25,0000 0000 0000 0000 000000
2018-04-11 07:33:58,0.25,4.29,0.00,27.02,29.30,32.00,13.99,49.88,1034.25,2015.00,2078.74,2102.16,2399.49,600.11,598.44,21.31,0000 0000 0000 0000 000000
2018-04-11 07:39:00,0.29,4.31,0.00,27.02,29.31,32.01,13.99,49.95,1034.26,2015.00,2075.76,2099.82,2396.79,599.78,598.05,21.36,0000 0000 0000 0000 000000
2018-04-11 07:44:01,0.29,4.32,0.00,27.03,29.32,32.03,13.94,49.97,1034.41,2014.99,2072.49,2097.35,2394.00,600.32,598.63,21.41,0000 0000 0000 0000 000000
2018-04-11 07:49:03,0.29,4.34,0.00,27.05,29.35,32.06,13.91,49.99,1034.49,2014.98,2069.39,2094.98,2391.27,599.74,598.08,21.46,0000 0000 0000 0000 000000
2018-04-11 07:54:05,0.26,4.35,0.00,27.12,29.36,32.09,13.96,49.85,1034.54,2014.98,2066.41,2092.69,2388.70,600.09,598.27,21.51,0000 0000 0000 0000 000000
2018-04-11 07:59:06,0.25,4.36,0.00,27.17,29.38,32.11,13.91,49.92,1034.63,2014.97,2063.69,2090.62,2386.38,599.61,597.67,21.56,0000 0000 0000 0000 000000
2018-04-11 08:04:07,0.27,4.38,0.00,27.20,29.41,32.13,13.94,49.92,1034.66,2014.91,2060.70,2088.31,2383.80,599.81,597.99,21.61,0000 0000 0000 0000 000000
2018-04-11 08:09:08,0.22,4.39,0.00,27.23,29.43,32.17,13.92,49.93,1034.67,2014.51,2057.65,2085.93,2381.08,600.17,598.24,21.66,0000 0000 0000 0000 000000
2018-04-11 08:14:09,0.22,4.40,0.00,27.26,29.46,32.20,13.98,49.96,1034.68,2014.12,2054.81,2083.78,2378.60,600.06,598.08,21.71,0000 0000 0000 0000 000000
2018-04-11 08:19:10,0.31,4.42,0.00,27.36,29.49,32.23,13.90,49.92,1034.68,2014.07,2051.55,2081.25,2375.76,600.01,597.76,21.76,0000 0000 0000 0000 000000
2018-04-11 08:24:12,0.28,4.43,0.00,27.38,29.51,32.26,13.85,49.87,1034.68,2014.02,2048.49,2078.88,2373.07,599.85,597.59,21.81,0000 0000 0000 0000 000000
2018-04-11 08:29:13,0.28,4.45,0.00,27.38,29.54,32.28,13.94,49.89,1034.68,2014.00,2045.67,2076.45,2370.32,600.06,597.84,21.86,0000 0000 0000 0000 000000
2018-04-11 08:34:15,0.29,4.46,0.00,27.42,29.57,32.33,13.95,49.88,1034.71,2014.00,2042.54,2074.03,2367.65,600.16,597.83,21.91,0000 0000 0000 0000 000000
2018-04-11 08:39:16,0.29,4.47,0.00,27.43,29.60,32.38,13.95,49.99,1034.76,2013.98,2039.42,2071.56,2365.01,599.99,597.78,21.96,0000 0000 0000 0000 000000
2018-04-11 08:44:17,0.26,4.49,0.00,27.49,29.63,32.41,13.94,49.76,1034.92,2013.92,2036.52,2069.29,2362.39,600.08,597.79,22.01,0000 0000 0000 0000 000000
2018-04-11 08:49:19,0.19,4.50,0.00,27.53,29.66,32.45,13.94,49.86,1034.99,2013.58,2033.88,2067.24,2360.06,600.30,598.02,22.06,0000 0000 0000 0000 000000
2018-04-11 08:54:20,0.18,4.51,0.00,27.51,29.69,32.46,13.97,49.75,1034.87,2013.12,2031.42,2065.38,2357.98,600.45,598.08,22.11,0000 0000 0000 0000 000000
2018-04-11 08:59:21,0.22,4.52,0.00,27.53,29.71,32.48,13.98,49.75,1034.81,2013.03,2028.90,2063.52,2355.80,600.07,597.64,22.16,0000 0000 0000 0000 000000
2018-04-11 09:04:23,0.20,4.53,0.00,27.55,29.74,32.54,13.90,49.84,1034.80,2013.00,2026.56,2061.85,2353.96,599.67,597.20,22.21,0000 0000 0000 0000 000000
2018-04-11 09:09:24,0.18,4.54,0.00,27.55,29.76,32.58,13.86,49.87,1034.95,2013.00,2024.49,2060.35,2352.30,599.61,597.20,22.26,0000 0000 0000 0000 000000
2018-04-11 09:14:25,0.17,4.55,0.00,27.61,29.78,32.60,13.94,49.86,1034.96,2012.99,2022.68,2058.94,2350.66,600.11,597.61,22.31,0000 0000 0000 0000 000000
2018-04-11 09:19:26,0.18,4.56,0.00,27.65,29.81,32.62,13.93,49.82,1034.95,2012.87,2020.69,2057.42,2348.83,599.38,596.98,22.36,0000 0000 0000 0000 000000
2018-04-11 09:24:27,0.15,4.57,0.00,27.64,29.83,32.65,13.92,49.79,1035.05,2012.39,2018.36,2055.64,2346.77,599.90,597.31,22.41,0000 0000 0000 0000 000000
2018-04-11 09:29:28,0.15,4.57,0.00,27.66,29.86,32.68,14.04,49.67,1035.13,2012.05,2016.38,2054.09,2344.95,600.41,597.85,22.46,0000 0000 0000 0000 000000
2018-04-11 09:34:30,0.20,4.58,0.00,27.65,29.87,32.73,13.95,49.63,1035.08,2012.00,2014.20,2052.56,2343.26,599.88,597.32,22.51,0000 0000 0000 0000 000000
2018-04-11 09:39:31,0.22,4.59,0.00,27.65,29.90,32.74,13.94,49.72,1035.06,2012.00,2011.80,2050.77,2341.34,600.34,597.80,22.56,0000 0000 0000 0000 000000
2018-04-11 09:44:32,0.19,4.61,0.00,27.67,29.92,32.78,13.91,49.68,1035.11,2012.00,2009.75,2049.22,2339.50,600.19,597.68,22.61,0000 0000 0000 0000 000000
2018-04-11 09:49:34,0.21,4.61,0.00,27.65,29.93,32.80,13.91,49.72,1035.14,2012.00,2007.73,2047.62,2337.71,599.91,597.48,22.66,0000 0000 0000 0000 000000
2018-04-11 09:54:35,0.17,4.62,0.00,27.71,29.95,32.83,13.95,49.67,1035.14,2011.99,2005.59,2046.36,2335.90,600.09,597.37,22.71,0000 0000 0000 0000 000000
2018-04-11 09:59:36,0.18,4.63,0.00,27.72,29.97,32.83,14.01,49.67,1035.16,2011.96,2003.55,2044.79,2334.13,600.50,597.98,22.76,0000 0000 0000 0000 000000
2018-04-11 10:04:38,0.17,4.64,0.00,27.71,29.99,32.87,13.90,49.60,1035.15,2011.85,2001.47,2043.29,2332.36,599.71,597.13,22.81,0000 0000 0000 0000 000000
2018-04-11 10:09:39,0.16,4.65,0.00,27.70,30.00,32.88,13.97,49.57,1035.16,2011.47,1999.40,2041.73,2330.60,600.09,597.52,22.86,0000 0000 0000 0000 000000
2018-04-11 10:14:40,0.16,4.66,0.00,27.70,30.02,32.90,13.91,49.64,1035.15,2011.20,1997.26,2040.15,2328.84,599.77,597.28,22.91,0000 0000 0000 0000 000000
2018-04-11 10:19:41,0.21,4.67,0.00,27.70,30.03,32.92,13.95,49.67,1035.17,2011.06,1994.94,2038.43,2326.92,600.30,597.75,22.96,0000 0000 0000 0000 000000
2018-04-11 10:24:42,0.21,4.68,0.00,27.67,30.05,32.93,13.97,49.52,1035.17,2011.02,1992.66,2036.68,2324.89,600.25,597.87,23.01,0000 0000 0000 0000 000000
2018-04-11 10:29:44,0.25,4.69,0.00,27.70,30.05,32.94,13.94,49.64,1035.17,2011.00,1990.12,2034.76,2322.73,600.08,597.55,23.06,0000 0000 0000 0000 000000
2018-04-11 10:34:46,0.26,4.71,0.00,27.71,30.07,32.98,13.87,49.59,1035.17,2011.00,1987.28,2032.68,2320.37,599.81,597.18,23.11,0000 0000 0000 0000 000000
2018-04-11 10:39:47,0.27,4.72,0.00,27.70,30.07,33.00,13.92,49.56,1035.17,2011.00,1984.51,2030.55,2317.98,600.03,597.62,23.16,0000 0000 0000 0000 000000
2018-04-11 10:44:48,0.25,4.73,0.00,27.67,30.09,33.02,13.96,49.69,1035.17,2011.00,1982.03,2028.51,2315.68,600.28,597.76,23.21,0000 0000 0000 0000 000000
2018-04-11 10:49:50,0.20,4.74,0.00,27.63,30.10,33.03,13.92,49.69,1035.16,2011.00,1979.84,2026.87,2313.88,599.83,597.32,23.26,0000 0000 0000 0000 000000
2018-04-11 10:54:51,0.20,4.75,0.00,27.60,30.11,33.04,13.85,49.71,1035.16,2011.00,1977.67,2025.28,2312.11,599.98,597.50,23.31,0000 0000 0000 0000 000000
2018-04-11 10:59:52,0.22,4.76,0.00,27.59,30.12,33.06,13.90,49.84,1035.17,2011.00,1975.39,2023.61,2310.13,599.64,597.33,23.36,0000 0000 0000 0000 000000
2018-04-11 11:04:53,0.19,4.78,0.00,27.60,30.12,33.07,13.96,49.75,1035.17,2011.00,1973.33,2021.98,2308.35,600.14,597.69,23.41,0000 0000 0000 0000 000000
2018-04-11 11:09:55,0.17,4.78,0.00,27.55,30.13,33.07,13.94,49.67,1035.17,2011.00,1971.66,2020.74,2306.92,600.55,598.23,23.46,0000 0000 0000 0000 000000
2018-04-11 11:14:56,0.16,4.79,0.00,27.51,30.14,33.09,13.89,49.74,1035.17,2011.00,1969.93,2019.52,2305.45,599.92,597.82,23.51,0000 0000 0000 0000 000000
2018-04-11 11:19:57,0.14,4.80,0.00,27.46,30.15,33.08,13.97,49.71,1035.17,2010.94,1968.46,2018.25,2303.77,600.07,597.94,23.56,0000 0000 0000 0000 000000
2018-04-11 11:24:58,0.19,4.81,0.00,27.41,30.14,33.08,13.96,49.69,1035.17,2010.92,1966.59,2016.76,2302.38,599.84,597.87,23.61,0000 0000 0000 0000 000000
2018-04-11 11:29:59,0.20,4.82,0.00,27.42,30.13,33.09,14.00,49.68,1035.17,2010.87,1964.41,2015.32,2300.65,599.98,598.04,23.66,0000 0000 0000 0000 000000
2018-04-11 11:35:01,0.20,4.83,0.00,27.37,30.12,33.13,13.97,49.74,1035.15,2010.93,1962.35,2013.78,2299.06,600.15,598.26,23.71,0000 0000 0000 0000 000000
2018-04-11 11:40:02,0.18,4.84,0.00,27.34,30.12,33.12,13.95,49.85,1035.16,2010.95,1960.53,2012.42,2297.44,599.79,597.93,23.76,0000 0000 0000 0000 000000
2018-04-11 11:45:04,0.12,4.85,0.00,27.27,30.10,33.14,13.95,49.74,1035.17,2010.88,1959.26,2011.37,2295.99,599.88,598.12,23.82,0000 0000 0000 0000 000000
2018-04-11 11:50:05,0.16,4.86,0.00,27.23,30.09,33.19,13.96,49.72,1035.15,2010.92,1957.53,2010.14,2294.74,599.60,597.88,23.87,0000 0000 0000 0000 000000
2018-04-11 11:55:06,0.17,4.86,0.00,27.25,30.07,33.16,14.01,49.64,1035.11,2010.95,1955.80,2008.88,2293.38,600.28,598.55,23.92,0000 0000 0000 0000 000000
2018-04-11 12:00:07,0.16,4.87,0.00,27.20,30.05,33.19,14.01,49.68,1035.07,2010.96,1954.10,2007.70,2291.97,600.08,598.41,23.97,0000 0000 0000 0000 000000
2018-04-11 12:05:08,0.17,4.88,0.00,27.14,30.03,33.16,13.99,49.71,1034.97,2010.99,1952.32,2006.43,2290.61,600.40,598.90,24.02,0000 0000 0000 0000 000000
2018-04-11 12:10:10,0.16,4.89,0.00,27.09,30.01,33.17,13.92,49.71,1034.77,2010.99,1950.53,2005.15,2289.18,599.59,598.15,24.07,0000 0000 0000 0000 000000
2018-04-11 12:15:12,0.18,4.90,0.00,27.07,29.99,33.13,13.92,49.79,1034.72,2010.99,1948.73,2003.82,2287.70,599.52,597.93,24.12,0000 0000 0000 0000 000000
2018-04-11 12:20:12,0.15,4.90,0.00,27.05,29.96,33.08,13.93,49.74,1034.71,2010.99,1947.07,2002.59,2286.30,599.98,598.42,24.17,0000 0000 0000 0000 000000
2018-04-11 12:25:14,0.16,4.91,0.00,26.98,29.94,33.03,13.96,49.83,1034.69,2010.99,1945.57,2001.44,2284.85,599.86,598.46,24.22,0000 0000 0000 0000 000000
2018-04-11 12:30:16,0.13,4.92,0.00,26.93,29.91,32.99,14.00,49.80,1034.68,2010.99,1944.16,2000.34,2283.53,600.08,598.52,24.27,0000 0000 0000 0000 000000
2018-04-11 12:35:17,0.14,4.93,0.00,26.91,29.89,32.96,13.96,49.78,1034.68,2011.00,1942.63,1999.23,2282.19,600.26,598.84,24.32,0000 0000 0000 0000 000000
2018-04-11 12:40:18,0.18,4.94,0.00,26.87,29.86,32.92,13.91,49.74,1034.67,2011.03,1940.83,1997.99,2280.84,599.84,598.63,24.37,0000 0000 0000 0000 000000
2018-04-11 12:45:19,0.19,4.95,0.00,26.82,29.83,32.90,13.99,49.83,1034.66,2011.21,1939.17,1996.71,2279.52,600.20,599.06,24.42,0000 0000 0000 0000 000000
2018-04-11 12:50:20,0.21,4.96,0.00,26.75,29.80,32.88,13.95,49.92,1034.65,2011.57,1937.42,1995.50,2278.11,599.92,598.93,24.47,0000 0000 0000 0000 000000
2018-04-11 12:55:21,0.19,4.97,0.00,26.74,29.77,32.85,14.04,49.73,1034.61,2011.93,1935.77,1994.37,2276.75,600.24,599.35,24.52,0000 0000 0000 0000 000000